Weather History for Juneau, WI

Change the Weather History Date:

Tuesday, June 3, 2014

  Actual Average Record
Temperature  
Mean Temperature 66 °F -  
Max Temperature 74 °F 68 °F 87 °F (1972)
Min Temperature 60 °F 51 °F 33 °F (1990)
Cooling Degree Days 2    
Growing Degree Days 16 (Base 50)    
Moisture  
Dew Point 49 °F    
Average Humidity 53    
Maximum Humidity 72    
Minimum Humidity 34    
Precipitation  
Precipitation 0.00 in - - ()
Sea Level Pressure  
Sea Level Pressure 29.90 in    
Wind  
Wind Speed 12 mph (WSW)    
Max Wind Speed 17 mph    
Max Gust Speed 28 mph    
Visibility 10 miles    
Events      
Averages and records for this station are not official NWS values.
T = Trace of Precipitation, MM = Missing Value Source: NWS Daily Summary

Daily Weather History Graph

Daily Weather History Graph

Search for Another Location

Airport:

Trip Planner

Search our weather history database for the weather conditions in past years. The results will help you decide how hot, cold, wet, or windy it might be!

Date:

Astronomy

Jun. 03, 2014 Rise Set
Actual Time 5:16 AM CDT 8:30 PM CDT
Civil Twilight 4:41 AM CDT 9:05 PM CDT
Nautical Twilight 3:55 AM CDT 9:50 PM CDT
Astronomical Twilight 3:00 AM CDT 10:46 PM CDT
Moon 10:45 AM CDT (6/3) No Moon Set
Length of Visible Light 16h 24m
Length of Day
15h 14m
Waxing Crescent, 30% of the Moon is Illuminated
Jun 3
Waxing Crescent
Jun 5
First Quarter
Jun 12
Full
Jun 19
Last Quarter
Jun 27
New

Hourly Weather History & Observations

Time (CDT) Temp. Dew Point Humidity Pressure Visibility Wind Dir Wind Speed Gust Speed Precip Events Conditions
12:15 AM 68.0 °F 58.3 °F 71% 29.79 in 10.0 mi SW 12.7 mph - N/A   Clear
12:35 AM 68.4 °F 55.9 °F 64% 29.79 in 10.0 mi WSW 13.8 mph - N/A   Scattered Clouds
12:55 AM 68.0 °F 55.4 °F 64% 29.79 in 10.0 mi WSW 15.0 mph - N/A   Scattered Clouds
1:15 AM 67.8 °F 53.8 °F 61% 29.79 in 10.0 mi WSW 16.1 mph - N/A   Clear
1:35 AM 67.8 °F 52.5 °F 58% 29.78 in 10.0 mi WSW 17.3 mph 25.3 mph N/A   Clear
1:55 AM 66.2 °F 54.5 °F 66% 29.78 in 10.0 mi SW 15.0 mph - N/A   Clear
2:15 AM 66.2 °F 52.7 °F 62% 29.79 in 10.0 mi WSW 16.1 mph - N/A   Clear
2:35 AM 65.3 °F 52.9 °F 64% 29.78 in 10.0 mi SW 15.0 mph - N/A   Clear
2:55 AM 64.8 °F 52.7 °F 65% 29.79 in 10.0 mi SW 16.1 mph - N/A   Clear
3:15 AM 64.4 °F 52.7 °F 66% 29.79 in 10.0 mi WSW 15.0 mph 19.6 mph N/A   Clear
3:35 AM 63.9 °F 52.9 °F 67% 29.80 in 10.0 mi WSW 16.1 mph 21.9 mph N/A   Clear
3:55 AM 63.7 °F 52.7 °F 67% 29.81 in 10.0 mi WSW 15.0 mph - N/A   Scattered Clouds
4:15 AM 63.1 °F 52.9 °F 69% 29.82 in 10.0 mi WSW 12.7 mph 17.3 mph N/A   Mostly Cloudy
4:35 AM 63.0 °F 52.0 °F 67% 29.82 in 10.0 mi WSW 16.1 mph 21.9 mph N/A   Mostly Cloudy
4:55 AM 62.2 °F 51.1 °F 67% 29.83 in 10.0 mi West 13.8 mph 20.7 mph N/A   Scattered Clouds
5:15 AM 61.3 °F 50.5 °F 68% 29.84 in 10.0 mi West 12.7 mph 24.2 mph N/A   Scattered Clouds
5:35 AM 61.0 °F 49.6 °F 66% 29.85 in 10.0 mi WSW 12.7 mph 20.7 mph N/A   Scattered Clouds
5:55 AM 60.8 °F 49.3 °F 66% 29.86 in 10.0 mi WSW 10.4 mph - N/A   Clear
6:15 AM 60.3 °F 51.1 °F 72% 29.87 in 10.0 mi WSW 13.8 mph - N/A   Clear
6:35 AM 60.8 °F 50.7 °F 69% 29.88 in 10.0 mi WSW 17.3 mph 24.2 mph N/A   Clear
6:55 AM 61.2 °F 50.7 °F 69% 29.88 in 10.0 mi West 13.8 mph 18.4 mph N/A   Scattered Clouds
7:15 AM 61.5 °F 50.0 °F 66% 29.89 in 10.0 mi West 16.1 mph 27.6 mph N/A   Mostly Cloudy
7:35 AM 61.7 °F 49.1 °F 63% 29.90 in 10.0 mi West 11.5 mph 25.3 mph N/A   Mostly Cloudy
7:55 AM 61.0 °F 48.6 °F 64% 29.91 in 10.0 mi West 12.7 mph 25.3 mph N/A   Mostly Cloudy
8:15 AM 61.9 °F 47.7 °F 60% 29.92 in 10.0 mi West 12.7 mph 21.9 mph N/A   Scattered Clouds
8:35 AM 62.6 °F 46.4 °F 55% 29.93 in 10.0 mi West 15.0 mph 20.7 mph N/A   Clear
8:55 AM 62.6 °F 45.5 °F 54% 29.93 in 10.0 mi West 10.4 mph 20.7 mph N/A   Clear
9:15 AM 63.1 °F 45.7 °F 53% 29.93 in 10.0 mi West 13.8 mph 19.6 mph N/A   Clear
9:35 AM 63.9 °F 45.0 °F 50% 29.94 in 10.0 mi WNW 9.2 mph 19.6 mph N/A   Clear
9:55 AM 64.4 °F 45.0 °F 49% 29.95 in 10.0 mi West 9.2 mph 23.0 mph N/A   Clear
10:15 AM 65.3 °F 45.7 °F 49% 29.95 in 10.0 mi WNW 10.4 mph 18.4 mph N/A   Clear
10:35 AM 65.8 °F 45.0 °F 47% 29.95 in 10.0 mi West 11.5 mph 17.3 mph N/A   Clear
10:55 AM 66.2 °F 45.0 °F 46% 29.97 in 10.0 mi West 11.5 mph 18.4 mph N/A   Clear
11:15 AM 66.7 °F 44.2 °F 44% 29.97 in 10.0 mi West 9.2 mph - N/A   Clear
11:35 AM 67.6 °F 46.6 °F 47% 29.97 in 10.0 mi WSW 9.2 mph 17.3 mph N/A   Clear
11:55 AM 68.2 °F 46.4 °F 46% 29.98 in 10.0 mi West 13.8 mph 18.4 mph N/A   Clear
12:15 PM 68.5 °F 44.4 °F 42% 29.98 in 10.0 mi WSW 9.2 mph 16.1 mph N/A   Clear
12:35 PM 69.3 °F 45.9 °F 43% 29.97 in 10.0 mi West 11.5 mph 19.6 mph N/A   Clear
12:55 PM 69.8 °F 45.1 °F 41% 29.96 in 10.0 mi West 9.2 mph 18.4 mph N/A   Clear
1:15 PM 70.0 °F 45.0 °F 41% 29.96 in 10.0 mi West 10.4 mph 19.6 mph N/A   Clear
1:35 PM 70.9 °F 45.5 °F 40% 29.95 in 10.0 mi West 9.2 mph 20.7 mph N/A   Clear
1:55 PM 71.6 °F 45.1 °F 39% 29.95 in 10.0 mi West 8.1 mph - N/A   Clear
2:15 PM 71.2 °F 44.2 °F 38% 29.94 in 10.0 mi WSW 10.4 mph - N/A   Clear
2:35 PM 72.7 °F 46.2 °F 39% 29.94 in 10.0 mi West 10.4 mph - N/A   Scattered Clouds
2:55 PM 72.0 °F 44.2 °F 37% 29.94 in 10.0 mi WSW 9.2 mph - N/A   Scattered Clouds
3:15 PM 72.7 °F 46.2 °F 39% 29.93 in 10.0 mi WSW 11.5 mph - N/A   Scattered Clouds
3:35 PM 73.2 °F 45.0 °F 36% 29.93 in 10.0 mi WSW 9.2 mph - N/A   Scattered Clouds
3:55 PM 73.6 °F 45.7 °F 37% 29.94 in 10.0 mi West 12.7 mph 17.3 mph N/A   Clear
4:15 PM 73.6 °F 44.6 °F 35% 29.93 in 10.0 mi WSW 11.5 mph 17.3 mph N/A   Clear
4:35 PM 73.8 °F 44.2 °F 35% 29.93 in 10.0 mi West 10.4 mph 17.3 mph N/A   Scattered Clouds
4:55 PM 73.4 °F 45.5 °F 37% 29.92 in 10.0 mi WSW 9.2 mph - N/A   Scattered Clouds
5:15 PM 73.0 °F 43.3 °F 34% 29.92 in 10.0 mi West 9.2 mph - N/A   Scattered Clouds
5:35 PM 73.4 °F 44.2 °F 35% 29.92 in 10.0 mi WSW 10.4 mph - N/A   Scattered Clouds
5:55 PM 73.4 °F 45.3 °F 37% 29.92 in 10.0 mi WSW 10.4 mph - N/A   Scattered Clouds
6:15 PM 72.5 °F 45.5 °F 38% 29.91 in 10.0 mi WSW 6.9 mph - N/A   Clear
6:35 PM 72.7 °F 45.0 °F 37% 29.91 in 10.0 mi West 5.8 mph - N/A   Clear
6:55 PM 72.0 °F 45.7 °F 39% 29.91 in 10.0 mi West 4.6 mph - N/A   Clear
7:15 PM 71.4 °F 45.5 °F 39% 29.91 in 10.0 mi Calm Calm - N/A   Clear
7:35 PM 70.3 °F 46.6 °F 43% 29.91 in 10.0 mi WSW 3.5 mph - N/A   Clear
7:55 PM 68.2 °F 45.9 °F 45% 29.90 in 10.0 mi SW 4.6 mph - N/A   Clear
8:15 PM 67.6 °F 50.9 °F 55% 29.88 in 10.0 mi South 3.5 mph - N/A   Clear
8:35 PM 66.9 °F 52.3 °F 59% 29.90 in 10.0 mi SW 3.5 mph - N/A   Clear
8:55 PM 65.3 °F 55.9 °F 72% 29.91 in 10.0 mi SW 3.5 mph - N/A   Clear
9:15 PM 66.0 °F 50.2 °F 57% 29.91 in 10.0 mi SW 3.5 mph - N/A   Clear
9:35 PM 65.1 °F 55.0 °F 70% 29.92 in 10.0 mi SSW 5.8 mph - N/A   Clear
9:55 PM 65.3 °F 52.9 °F 64% 29.92 in 10.0 mi Calm Calm - N/A   Clear
10:15 PM 65.7 °F 53.8 °F 65% 29.91 in 10.0 mi Calm Calm - N/A   Clear
10:35 PM 65.7 °F 50.7 °F 58% 29.92 in 10.0 mi Calm Calm - N/A   Clear
10:55 PM 65.3 °F 50.2 °F 58% 29.91 in 10.0 mi SSW 3.5 mph - N/A   Clear
11:15 PM 65.3 °F 50.5 °F 59% 29.91 in 10.0 mi Calm Calm - N/A   Clear
11:35 PM 63.9 °F 49.5 °F 59% 29.92 in 10.0 mi Calm Calm - N/A   Clear
11:55 PM 64.2 °F 52.7 °F 66% 29.92 in 10.0 mi Calm Calm - N/A   Clear